Location: Boissi�res
(45.2500°N, 2.3667°E)
Time: 02:39:55
(UTC+00:00)

IRS-1A Rocket - Pass Details

Date: 03 March 2021
Orbit: 852 x 930 km, 99.2° (Epoch: 20 April)

Event Time Altitude Azimuth Distance (km) Brightness Sun altitude
Exits shadow 19:46:41 31° 159° (SSE) 1,488 5.2 -22.8°
Maximum altitude 19:49:30 84° 75° (ENE) 884 4.1 -23.3°
Drops below altitude 10° 19:55:06 10° 347° (NNW) 2,512 7.0 -24.3°
Sets 19:57:28 0° 346° (NNW) 3,446 7.8 -24.7°
